TimeEDT,TemperatureF,Dew PointF,Humidity,Sea Level PressureIn,VisibilityMPH,Wind Direction,Wind SpeedMPH,Gust SpeedMPH,PrecipitationIn,Events,Conditions,WindDirDegrees,DateUTC
12:56 AM,45.0,34.0,65,30.40,10.0,North,4.6,-,N/A,,Clear,10,2014-04-20 04:56:00
1:56 AM,46.0,27.0,47,30.41,10.0,NNE,9.2,-,N/A,,Clear,20,2014-04-20 05:56:00
2:56 AM,44.1,26.1,49,30.41,10.0,NNE,9.2,-,N/A,,Clear,30,2014-04-20 06:56:00
3:56 AM,43.0,25.0,49,30.43,10.0,NNE,6.9,-,N/A,,Clear,30,2014-04-20 07:56:00
4:56 AM,41.0,25.0,53,30.43,10.0,North,5.8,-,N/A,,Clear,10,2014-04-20 08:56:00
5:56 AM,39.0,26.1,60,30.46,10.0,NNE,5.8,-,N/A,,Clear,20,2014-04-20 09:56:00
6:56 AM,41.0,27.0,57,30.49,9.0,NNE,5.8,-,N/A,,Clear,20,2014-04-20 10:56:00
7:56 AM,46.0,26.1,46,30.49,10.0,NE,9.2,-,N/A,,Clear,40,2014-04-20 11:56:00
8:56 AM,48.9,23.0,36,30.48,10.0,ENE,12.7,-,N/A,,Clear,70,2014-04-20 12:56:00
9:56 AM,50.0,21.0,32,30.50,10.0,East,10.4,-,N/A,,Clear,80,2014-04-20 13:56:00
10:56 AM,50.0,26.1,39,30.50,10.0,ESE,12.7,-,N/A,,Clear,120,2014-04-20 14:56:00
11:56 AM,50.0,30.0,46,30.49,10.0,SE,17.3,-,N/A,,Clear,140,2014-04-20 15:56:00
12:56 PM,51.8,28.4,41,30.48,10.0,SE,15.0,21.9,N/A,,Clear,130,2014-04-20 16:56:00
1:56 PM,48.9,35.1,59,30.48,10.0,SSE,13.8,-,N/A,,Clear,160,2014-04-20 17:56:00
2:56 PM,48.0,34.0,58,30.47,9.0,SSE,11.5,-,N/A,,Clear,150,2014-04-20 18:56:00
3:56 PM,48.0,30.9,52,30.45,9.0,SSE,10.4,-,N/A,,Clear,150,2014-04-20 19:56:00
4:56 PM,48.0,30.9,52,30.45,10.0,SSE,11.5,-,N/A,,Clear,160,2014-04-20 20:56:00
5:56 PM,46.0,30.9,56,30.44,10.0,SSE,8.1,-,N/A,,Clear,150,2014-04-20 21:56:00
6:56 PM,45.0,30.9,58,30.43,10.0,SSE,4.6,-,N/A,,Clear,160,2014-04-20 22:56:00
7:56 PM,42.1,30.0,62,30.41,10.0,SE,4.6,-,N/A,,Clear,140,2014-04-20 23:56:00
8:56 PM,42.1,34.0,73,30.41,10.0,Calm,Calm,-,N/A,,Clear,0,2014-04-21 00:56:00
9:56 PM,37.9,32.0,79,30.40,10.0,Calm,Calm,-,N/A,,Clear,0,2014-04-21 01:56:00
10:56 PM,36.0,32.0,86,30.37,9.0,NNE,3.5,-,N/A,,Clear,20,2014-04-21 02:56:00
11:56 PM,35.1,32.0,89,30.35,9.0,Calm,Calm,-,N/A,,Clear,0,2014-04-21 03:56:00